This is the latest recevied weather packets stored in our database for station/object K8JMX-13. If no packets are shown the sender has not sent any weather packets the latest 10 day(s).
| Time | Temp. | Humidity | Pressure | Rain* | Wind** | Luminosity | Snow |
|---|---|---|---|---|---|---|---|
| 1777930090 | 22.22° C | 46% | 1005.4 hPa | 0 mm | - | 495 W/m² | - |
| 1777929786 | 22.22° C | 45% | 1005.4 hPa | 0 mm | - | 462 W/m² | - |
| 1777929484 | 22.78° C | 45% | 1005.3 hPa | 0 mm | - | 496 W/m² | - |
| 1777929179 | 22.78° C | 46% | 1005.2 hPa | 0 mm | - | 483 W/m² | - |
| 1777928877 | 22.22° C | 46% | 1005.2 hPa | 0 mm | - | 573 W/m² | - |
| 1777928574 | 22.22° C | 46% | 1005 hPa | 0 mm | - | 220 W/m² | - |
| 1777928271 | 21.67° C | 47% | 1005.1 hPa | 0 mm | - | 191 W/m² | - |
| 1777927969 | 21.11° C | 49% | 1005.4 hPa | 0 mm | - | 427 W/m² | - |
| 1777927667 | 21.11° C | 49% | 1005.5 hPa | 0 mm | - | 163 W/m² | - |
| 1777927365 | 21.11° C | 51% | 1005.4 hPa | 0 mm | - | 149 W/m² | - |
| 1777927064 | 21.11° C | 51% | 1005.7 hPa | 0 mm | - | 129 W/m² | - |
| 1777926761 | 21.11° C | 51% | 1005.9 hPa | 0 mm | - | 100 W/m² | - |
| 1777926461 | 21.11° C | 50% | 1005.9 hPa | 0 mm | - | 119 W/m² | - |
| 1777926158 | 21.67° C | 50% | 1006.1 hPa | 0 mm | - | 194 W/m² | - |
| 1777925855 | 21.67° C | 50% | 1006.2 hPa | 0 mm | - | 574 W/m² | - |
| 1777925552 | 21.67° C | 50% | 1006.2 hPa | 0 mm | - | 219 W/m² | - |
| 1777925250 | 21.67° C | 49% | 1006.3 hPa | 0 mm | - | 137 W/m² | - |
| 1777924946 | 21.67° C | 49% | 1006.3 hPa | 0 mm | - | 151 W/m² | - |
| 1777924642 | 22.22° C | 48% | 1006.8 hPa | 0 mm | - | 157 W/m² | - |
| 1777924339 | 23.33° C | 46% | 1006.2 hPa | 0 mm | - | 216 W/m² | - |
| 1777924036 | 22.78° C | 46% | 1006.4 hPa | 0 mm | - | 388 W/m² | - |
| 1777923732 | 22.78° C | 46% | 1006.1 hPa | 0 mm | - | 658 W/m² | - |
| 1777923428 | 22.78° C | 45% | 1006.4 hPa | 0 mm | - | 697 W/m² | - |
| 1777923126 | 22.78° C | 47% | 1006.2 hPa | 0 mm | - | 241 W/m² | - |
| 1777922824 | 23.33° C | 45% | 1006.2 hPa | 0 mm | - | 595 W/m² | - |
* Rain latest hour (hover to see other rain measurements)
** Current wind speed in m/s (hover to see current wind gust speed)